Regional Weather Roundup
Issued by NWS

Home | Current Version | Previous Version | Graphics & Text | Print | Product List | Glossary On
Versions: 1 2 3 4 5 6 7 8 9 10 11 12 13 14 15 16 17 18 19 20 21 22 23 24 25 26 27 28 29 30 31 32 33 34 35 36 37 38 39 40 41 42 43 44 45 46 47 48 49 50
672
ASUS45 KBOU 291007
RWRCO

WEATHER ROUNDUP FOR COLORADO
NATIONAL WEATHER SERVICE DENVER/BOULDER CO
400 AM MDT SAT APR 29 2017

NOTE: "FAIR" INDICATES FEW OR NO CLOUDS BELOW 12000 FEET WITH NO
SIGNIFICANT WEATHER AND/OR OBSTRUCTIONS TO VISIBILITY.

COZ001>005-013-030-031-291100-
...NORTHWEST COLORADO...

CITY           SKY/WX    TMP DP  RH WIND       PRES   REMARKS
CRAIG          MOCLDY    33  21  61 E7        29.96R WCI  27
HAYDEN         FAIR      32  16  51 E10       29.95R WCI  24
MEEKER         CLOUDY    34  25  69 N16       29.91R WCI  24
MOUNT WERNER   NOT AVBL
STEAMBOAT SPGS CLOUDY    30  17  59 CALM      29.95R
WALDEN           N/A     23  10  58 NE18G24   29.98S WCI   9
$$

COZ006>008-011-291100-
...WEST CENTRAL VALLEYS...

CITY           SKY/WX    TMP DP  RH WIND       PRES   REMARKS
GRAND JUNCTION CLOUDY    41  33  73 S7        29.87R
MONTROSE       LGT SNOW  32  32 100 CALM      29.88S VSB 3/4
EAGLE          FAIR      31  17  56 VRB3      29.94R
RIFLE          MOCLDY    36  29  75 CALM      29.89R
DELTA          LGT RAIN  36  34  94 CALM      29.87S
NUCLA          MOCLDY    34  28  80 W6        29.89R WCI  29
$$

COZ017>023-064>068-291100-
...SOUTHWEST COLORADO...

CITY           SKY/WX    TMP DP  RH WIND       PRES   REMARKS
DURANGO        CLOUDY    27  23  85 CALM      29.80R
CORTEZ         FAIR      27  26  96 SE5       29.84S WCI  22
PAGOSA SPRINGS CLOUDY    32  24  72 SW3       29.80S
TELLURIDE      LGT SNOW  24  23  97 W3        29.84R VSB 1
WOLF CREEK PAS CLOUDY    14  12  92 NE12      29.82F WCI   0
$$

COZ009-010-012-014-032>034-037-058>063-291100-
...CENTRAL COLORADO...

CITY           SKY/WX    TMP DP  RH WIND       PRES   REMARKS
ASPEN          FAIR      23  19  85 SW5       29.86R WCI  17
BUENA VISTA    CLOUDY    24  18  79 W3        29.96F
COPPER MTN     MOCLDY    12   5  73 MISG      29.88R
BERTHOUD PASS  SNOW       3  -8  60 E33G41    29.89R VSB 1/2 WCI -23
COTTONWOOD PAS LGT SNOW  21  18  86 E7        29.92F WCI  13
GUNNISON       FAIR      28  17  63 E6        29.82S WCI  22
KREMMLING      CLOUDY    32  21  64 E7        29.99R WCI  26
LEADVILLE      CLOUDY    14  10  84 S5        29.90R WCI   6
MONARCH PASS   CLOUDY     9   5  85 E48       29.84F WCI -19
SALIDA         CLOUDY    27  25  93 N5        30.06S WCI  21
SUNLIGHT       CLOUDY    14  10  85 NE12G21   29.88S WCI   0
WILKERSON PASS CLOUDY    10   7  85 NE10G16   29.92R WCI  -3
$$

COZ069>075-291100-
...SAN LUIS VALLEY/SANGRE DE CRISTO MOUNTAINS...

CITY           SKY/WX    TMP DP  RH WIND       PRES   REMARKS
ALAMOSA        CLOUDY    29  19  66 E14G26    29.76F WCI  18
LA VETA PASS   HVY SNOW  16  12  86 MISG      29.94R VSB 1/4
SAGUACHE       CLOUDY    30  12  47 NE25G32   29.81F WCI  16
$$

COZ035-036-038>040-291100-
...NORTHERN COLORADO FRONT RANGE...

CITY           SKY/WX    TMP DP  RH WIND       PRES   REMARKS
DENVER INTL AP LGT SNOW  29  27  92 NE14      30.07S FOG     WCI  18
DMNS CITY PARK   N/A     29  29 100 N14       30.10R WCI  18
AURORA         FLURRIES  28  28  99 NE9       30.08R WCI  19
FRONT RANGE AP FLURRIES  32  30  93 NE15G22   30.08R WCI  22
ERIE MUNI ARPT LGT SNOW  31  30  96 N9        30.11S WCI  23
BOULDER MUN AP LGT SNOW  30  30 100 N8        30.12R WCI  23
CENTENNIAL     LGT SNOW  27  26  96 NE9       30.07R FOG     WCI  18
BROOMFIELD     LGT SNOW  30  30 100 N10       30.10R WCI  21
FORT COLLINS   MIX PCPN  31  29  92 NE9       30.13S WCI  23
LONGMONT       FLURRIES  33  30  89 N10       30.13F WCI  24
$$

COZ041-046-047-076>085-087-088-291100-
...PIKES PEAK/PALMER DIVIDE AND SOUTHERN FOOTHILLS...

CITY           SKY/WX    TMP DP  RH WIND       PRES   REMARKS
COLO. SPRINGS  FLURRIES  30  23  75 N17       30.01S WCI  18
A. F. ACADEMY  LGT SNOW  26  24  90 NW13      30.01R FOG     WCI  15
SCHRIEVER AFB  LGT SNOW  26  24  90 N18G26    29.99F WCI  13
ELLICOTT       LGT SNOW N/A N/A N/A NE22      29.97F
FALCON         LGT SNOW  25  23  91 N16G22    30.00S WCI  13
FORT CARSON    FLURRIES  29  25  85 N26G32    29.97F WCI  14
LIMON          FLURRIES  28  27  96 N20G29    30.01R WCI  15
MONUMENT HILL  CLOUDY    23  21  93 N14       30.03R WCI  11
TRINIDAD       LGT SNOW  29  27  92 N9        29.96F VSB 1   WCI  20
$$

COZ042>045-048>051-090-091-291100-
...NORTHEAST COLORADO...

CITY           SKY/WX    TMP DP  RH WIND       PRES   REMARKS
GREELEY ARPT   MIX PCPN  32  29  88 N7        30.13S WCI  26
AKRON          CLOUDY    31  28  89 N15       30.06R WCI  20
BURLINGTON     NOT AVBL
WRAY           NOT AVBL
STERLING       CLOUDY    34  32  93 N9        30.10R WCI  26
HOLYOKE        CLOUDY    37  34  87 N13       30.08R
FORT MORGAN    CLOUDY    32  30  92 N12       30.10S WCI  23
$$

COZ086-089-092>099-291100-
...SOUTHEAST COLORADO...

CITY           SKY/WX    TMP DP  RH WIND       PRES   REMARKS
PUEBLO         LGT SNOW  32  30  92 N15       30.00F VSB 1   WCI  22
LA JUNTA       SNOW      33  30  88 NE20G28   29.98F VSB 1/2 WCI  21
LAMAR          LGT SNOW  33  31  92 NE14      29.97R VSB 1   WCI  23
SPRINGFIELD      N/A     30  30 100 N21G35    29.91R WCI  17
$$




USA.gov is the U.S. government's official web portal to all federal, state and local government web resources and services.